sat.trackr.live / text

‹ back to catalog

STARLINK-31416

NORAD 59355 · 2024-060H

PAYLOAD ACTIVE UNKNOWN

§ Identity

Operator
Country
US
Launch date
2024-03-31
Launch site
AFETR
Launch vehicle
Mass (kg)
RCS (m²)

Purposes: comms

External: N2YO · Heavens-Above · Gunter

§ Orbital elements

Epoch: 2026-05-25T03:15:31.836096Z

Period
94.27 min
Inclination
42.9999°
Eccentricity
0.0001491
Mean motion
15.27580762 rev/d
Perigee alt
482.0 km
Apogee alt
484.1 km
Semi-major
6,861.2 km
B*
1.1160e-5
RAAN
188.1820°
Arg perigee
269.9610°
Mean anomaly
90.1071°
Rev number
12,175

§ Raw data

STARLINK-314161 59355U 24060H   26145.13578514  .00000045  00000+0  11160-4 0  99922 59355  42.9999 188.1820 0001491 269.9610  90.1071 15.27580762121754

JSON: /api/v1/satellites/59355 · /tle

For live sub-satellite position, see the globe view (requires WebGL).

§ Visibility from observer

Set your observer location to see the next 7 days of passes ≥ 10°. The values pass through the URL so the page stays shareable.

No JS? Fill the form by hand. The geolocation button needs JavaScript.